WetterOnline ( https://www.wetteronline.de )

Wetter aktuell Saint-Gilles/Sint-Gillis

Aktuelles Wetter: Chievres (63m)

6-stündlich | Neueste Meldungen
Ortszeit Temperatur Wetter
Fr, 14.06. 14:00 15.1° C Sprühregen
Fr, 14.06. 8:00 14.0° C bewölkt
Fr, 14.06. 2:00 13.3° C leichter Regen
Do, 13.06. 20:00 18.1° C fast wolkenlos
Do, 13.06. 14:00 18.2° C wolkig
Do, 13.06. 8:00 11.6° C fast wolkenlos
Do, 13.06. 2:00 7.9° C wolkig
Mi, 12.06. 20:00 13.2° C wolkig
Ortszeit Temperatur Wetter
Fr, 14.06. 19:00 17.0° C wolkig
Fr, 14.06. 18:00 17.6° C wolkig
Fr, 14.06. 17:00 18.5° C wolkig
Fr, 14.06. 16:00 17.8° C bewölkt
Fr, 14.06. 15:00 16.1° C bedeckt
Fr, 14.06. 14:00 15.1° C Sprühregen
Fr, 14.06. 13:00 14.5° C Sprühregen
Ortszeit Relative Feuchte Sichtweite
Fr, 14.06. 14:00 87% 16 km
Fr, 14.06. 8:00 76% >70 km
Fr, 14.06. 2:00 84% 30 km
Do, 13.06. 20:00 51% >70 km
Do, 13.06. 14:00 49% >70 km
Do, 13.06. 8:00 77% 15 km
Do, 13.06. 2:00 97% 30 km
Mi, 12.06. 20:00 72% >70 km
Ortszeit Relative Feuchte Sichtweite
Fr, 14.06. 19:00 81% >70 km
Fr, 14.06. 18:00 82% >70 km
Fr, 14.06. 17:00 66% >70 km
Fr, 14.06. 16:00 72% >70 km
Fr, 14.06. 15:00 86% >70 km
Fr, 14.06. 14:00 87% 16 km
Fr, 14.06. 13:00 90% 17 km
Ortszeit Niederschlagsmenge Niederschlagsart
Fr, 14.06. 14:00 0.2 l/m2 in 6 Std. Regen
Fr, 14.06. 8:00 0.3 l/m2 in 12 Std. Regen
Fr, 14.06. 2:00 0.1 l/m2 in 6 Std. Regen
Do, 13.06. 20:00 0.0 l/m2 in 12 Std. -
Do, 13.06. 14:00 0.0 l/m2 in 6 Std. -
Do, 13.06. 8:00 0.0 l/m2 in 12 Std. -
Do, 13.06. 2:00 0.0 l/m2 in 6 Std. -
Mi, 12.06. 20:00 0.1 l/m2 in 12 Std. -
Ortszeit Niederschlagsmenge Niederschlagsart
Fr, 14.06. 19:00 keine Meldung -
Fr, 14.06. 18:00 keine Meldung -
Fr, 14.06. 17:00 keine Meldung -
Fr, 14.06. 16:00 keine Meldung -
Fr, 14.06. 15:00 keine Meldung -
Fr, 14.06. 14:00 keine Meldung -
Fr, 14.06. 13:00 keine Meldung -
Ortszeit Stärke Spitze Richtung
km/h Bft. km/h Grad Sektor
Fr, 14.06. 14:00 18 3 40 200° S
Fr, 14.06. 8:00 22 4 32 190° S
Fr, 14.06. 2:00 7 2 22 220° SW
Do, 13.06. 20:00 14 3 40 230° SW
Do, 13.06. 14:00 18 3 32 230° SW
Do, 13.06. 8:00 11 2 14 190° S
Do, 13.06. 2:00 4 1 11 uml. uml.
Mi, 12.06. 20:00 7 2 25 uml. uml.
Ortszeit Stärke Spitze Richtung
km/h Bft. km/h Grad Sektor
Fr, 14.06. 19:00 11 2 18 210° SW
Fr, 14.06. 18:00 11 2 29 260° W
Fr, 14.06. 17:00 22 4 32 200° S
Fr, 14.06. 16:00 18 3 29 200° S
Fr, 14.06. 15:00 18 3 32 210° SW
Fr, 14.06. 14:00 18 3 40 200° S
Fr, 14.06. 13:00 22 4 32 200° S
Ortszeit Untergrenze Bedeckung Gattung
total tief tief mittel hoch
Fr, 14.06. 14:00 330 m - 5/8 - - -
Fr, 14.06. 8:00 780 m - 7/8 - - -
Fr, 14.06. 2:00 2100 m - 5/8 - - -
Do, 13.06. 20:00 1800 m - 1/8 - - -
Do, 13.06. 14:00 1260 m - 5/8 - - -
Do, 13.06. 8:00 2400 m - 1/8 - - -
Do, 13.06. 2:00 2700 m - 5/8 - - -
Mi, 12.06. 20:00 1800 m - 5/8 - - -
Ortszeit Bedeckungsgrad in Achtel und Wolkenuntergrenze
Fr, 14.06. 19:00 1(390m) 3(1800m) 5(2400m)
Fr, 14.06. 18:00 1(600m) 3(2400m) 5(2700m)
Fr, 14.06. 17:00 1(1050m) 5(2400m) 7(3000m)
Fr, 14.06. 16:00 1(720m) 5(2100m) 7(2700m)
Fr, 14.06. 15:00 1(450m) 5(1380m) 8(2100m)
Fr, 14.06. 14:00 1(330m) 3(540m) 5(750m)
Fr, 14.06. 13:00 3(300m) 5(390m) 7(3000m)
Ortszeit Luftdruck NN (hPa) Tendenz (hPa in 3 Std.)
Fr, 14.06. 14:00 1007 0,0
Fr, 14.06. 8:00 1007 - 1,2
Fr, 14.06. 2:00 1010 - 1,1
Do, 13.06. 20:00 1012 - 1,5
Do, 13.06. 14:00 1016 - 1,6
Do, 13.06. 8:00 1019 - 0,5
Do, 13.06. 2:00 1020 - 0,5
Mi, 12.06. 20:00 1020 - 0,5
Ortszeit Luftdruck NN (hPa) Tendenz (hPa in 3 Std.)
Fr, 14.06. 19:00 1004 - 1,8
Fr, 14.06. 18:00 1005 - 1,6
Fr, 14.06. 17:00 1005 - 1,3
Fr, 14.06. 16:00 1006 - 0,6
Fr, 14.06. 15:00 1006 - 0,1
Fr, 14.06. 14:00 1007 0,0
Fr, 14.06. 13:00 1007 0,0
Ortszeit Schneehöhe (cm)
Fr, 14.06. 14:00 -
Fr, 14.06. 8:00 -
Fr, 14.06. 2:00 -
Do, 13.06. 20:00 -
Do, 13.06. 14:00 -
Do, 13.06. 8:00 -
Do, 13.06. 2:00 -
Mi, 12.06. 20:00 -
Ortszeit Schneehöhe (cm)
Fr, 14.06. 19:00 -
Fr, 14.06. 18:00 -
Fr, 14.06. 17:00 -
Fr, 14.06. 16:00 -
Fr, 14.06. 15:00 -
Fr, 14.06. 14:00 -
Fr, 14.06. 13:00 -
Link zu dieser Seite / Seite empfehlen

Das Wetter in ...